#timestamp,LO_Frequency,Hit,StdDev 
1546779615.4,286047001.5,N
1546779635.7,286047004.0,N
1546779655.5,286047000.6,N
1546779675.3,286047002.8,N
1546779695.2,286047000.8,N
1546779715.0,286046998.4,N
1546779715.9,286046998.4,N
1546779735.7,286047002.0,N
1546779755.6,286046999.9,N
1546779775.4,286047000.2,N
1546779795.3,286047002.2,N
1546779815.1,286047000.2,N
1546779816.0,286047000.2,N
1546779835.8,286047000.1,N
1546779855.7,286047000.3,N
1546779875.5,286047004.3,N
1546779895.4,286047001.3,N
1546779915.2,286046999.7,N
1546779935.0,286047002.8,N
1546779935.9,286047002.8,N
1546779955.8,286047000.5,N
1546779975.6,286047000.2,N
1546779995.4,286047001.3,N
1546780015.3,286047004.0,N
1546780035.1,286047001.7,N
1546780055.9,286047001.8,N
1546780075.7,286046999.7,N
1546780095.5,286046998.1,N
1546780115.4,286047001.1,N
1546780135.2,286047000.6,N
1546780155.1,286047002.6,N
1546780156.0,286047002.6,N
1546780175.4,286047002.7,N
1546780195.2,286047002.8,N
1546780215.0,286047002.6,N
1546780215.9,286047002.6,N
1546780235.8,286047002.5,N
1546780255.6,286046999.9,N
1546780275.4,286047000.5,N
1546780295.3,286047002.8,N
1546780315.1,286047001.5,N
1546780335.9,286047002.2,N
1546780355.7,286046999.8,N
1546780375.5,286047002.0,N
1546780395.4,286047000.7,N
1546780415.3,286046999.8,N
1546780435.2,286047002.2,N
1546780455.0,286046999.7,N
1546780455.9,286046999.7,N
1546780475.8,286047000.9,N
1546780495.6,286047001.1,N
1546780515.4,286046998.1,N
1546780535.3,286046999.9,N
1546780555.6,286046999.8,N
1546780575.4,286047002.3,N
1546780595.2,286047001.6,N
1546780615.1,286047002.2,N
1546780616.0,286047002.2,N
1546780635.8,286047002.2,N
1546780655.7,286047003.8,N
1546780675.5,286047004.0,N
1546780695.3,286047001.9,N
1546780715.2,286047004.3,Y
1546780735.0,286047000.3,P
1546780735.9,286047000.3,N
1546780755.8,286047000.7,N
1546780775.6,286047001.6,Y
1546780795.4,286046999.7,P
1546780815.3,286046999.8,N
1546780835.1,286046999.7,N
1546780855.1,286046998.6,Y
1546780856.0,286046998.6,P
1546780875.8,286046998.4,N
1546780895.7,286046996.9,P
1546780915.5,286046996.5,Y
1546780935.3,286047002.8,P
1546780955.2,286047001.9,N
1546780975.0,286047000.1,N
1546780975.9,286047000.1,N
1546780995.7,286047000.6,N
1546781015.6,286047002.2,N
1546781035.4,286047002.8,N
1546781055.3,286047002.1,N
1546781075.1,286047001.9,N
1546781076.0,286047001.9,N
1546781095.8,286047001.4,N
1546781115.7,286047001.4,N
1546781135.5,286047001.7,N
1546781155.4,286047001.7,N
1546781175.2,286047004.2,Y
1546781225.1,286047002.4,E
1546781235.9,286047000.4,N
1546781255.7,286046998.9,P
1546781275.6,286046997.1,P
1546781295.4,286046998.8,N
1546781315.2,286046998.9,N
1546781335.1,286046998.7,N
1546781336.0,286046998.7,N
1546781355.8,286046999.5,N
1546781375.7,286046999.5,N
1546781395.5,286046996.5,Y
1546781415.3,286046999.4,P
1546781435.2,286046998.8,P
1546781455.0,286047001.1,P
1546781455.9,286047001.1,N
1546781475.8,286047002.8,N
1546781495.3,286047000.6,N
1546781515.1,286047000.9,N
1546781535.9,286046998.5,N
1546781555.7,286047000.5,N
1546781575.5,286046999.7,N
1546781595.4,286047000.6,N
1546781615.2,286047000.8,N
1546781635.1,286047000.4,N
1546781636.0,286047000.4,N
1546781655.8,286047002.2,N
1546781675.6,286047001.7,N
1546781695.5,286047004.0,Y
1546781715.3,286047000.5,P
1546781735.2,286047000.3,P
1546781755.9,286047001.0,P
1546781775.7,286046998.6,Y
1546781795.6,286046997.0,P
1546781815.4,286046999.6,N
1546781835.2,286046999.2,N
1546781855.1,286046998.2,N
1546781856.0,286046998.2,N
1546781875.8,286047001.1,N
1546781895.7,286047000.7,N
1546781915.5,286047000.3,N
1546781935.3,286047001.5,N
1546781955.2,286047000.1,N
1546781975.0,286047000.8,N
1546781975.9,286047000.8,N
1546781995.7,286047001.2,N
1546782015.6,286046998.8,N
1546782035.4,286046998.4,N
1546782055.3,286046996.5,N
1546782075.1,286046999.6,N
1546782076.0,286046999.6,N
1546782095.8,286046994.9,Y
1546782115.7,286046995.3,P
1546782135.5,286046998.0,N
1546782155.4,286046997.0,N
1546782175.2,286046999.2,N
1546782195.0,286046998.8,N
1546782195.9,286046998.8,N
1546782215.8,286046996.8,N
1546782235.6,286046997.4,N
1546782255.4,286046996.9,N
1546782275.3,286046997.1,N
1546782295.1,286046996.8,N
1546782315.9,286046999.4,N
1546782335.7,286046996.5,N
1546782355.5,286046998.8,N
1546782375.4,286047001.2,N
1546782395.2,286047000.8,N
1546782415.0,286046999.3,N
1546782415.9,286046999.3,N
1546782435.8,286046996.5,N
1546782455.6,286046996.8,N
1546782475.5,286046999.6,N
1546782495.3,286046999.2,N
1546782515.1,286046999.3,N
1546782535.9,286046998.4,N
1546782555.7,286047001.2,N
1546782575.5,286047000.1,N
1546782595.4,286047000.8,N
1546782615.2,286046999.3,N
1546782635.1,286046997.3,N
1546782636.0,286046997.3,N
1546782655.8,286046993.7,Y
1546782675.6,286046995.1,P
1546782695.5,286046997.5,N
1546782715.3,286046998.3,N
1546782735.1,286047000.4,N
1546782755.9,286046998.5,N
1546782775.7,286047001.1,N
1546782795.6,286046998.2,N
1546782815.4,286046998.9,N
1546782835.2,286047000.7,N
1546782855.1,286047000.3,N
1546782856.0,286047000.3,N
1546782875.8,286046999.0,N
1546782895.7,286046999.1,N
1546782915.1,286046998.1,N
1546782916.0,286046998.1,N
1546782935.8,286046998.7,N
1546782955.6,286047001.2,N
1546782975.5,286047000.8,N
1546782995.3,286047001.0,N
1546783015.2,286046999.7,N
1546783035.9,286047002.6,N
1546783055.7,286047002.1,N
1546783075.6,286047001.9,N
1546783095.4,286047000.9,N
1546783115.3,286047000.9,N
1546783135.1,286047002.7,N
1546783136.0,286047002.7,N
1546783155.8,286047000.6,N
1546783175.7,286046999.9,N
1546783195.5,286047001.1,N
